CW0728 Weather Reports


Display with metric or nautical units.
time (UTC)temp
F
wind
direction
speed
MPH
gust
MPH
rain 1hr
in
rain 24hr
in
rain mn
in
humidity
%
barometer
mb
20260505001511 59 162 0.0 2.0 0.00 0.00 0.00 55 1004.9
20260505000109 63 117 1.0 4.0 0.00 0.00 0.00 47 1004.7
20260504234539 66 219 0.0 3.0 0.00 0.00 0.00 36 1004.3
20260504233021 67 264 0.0 2.0 0.00 0.00 0.00 35 1004.2
20260504231625 68 247 0.0 3.0 0.00 0.00 0.00 34 1003.9
20260504230037 68 286 1.0 4.0 0.00 0.00 0.00 33 1003.7
20260504224513 69 256 0.0 5.0 0.00 0.00 0.00 33 1003.6
20260504223057 69 294 1.0 7.0 0.00 0.00 0.00 32 1003.5
20260504221550 70 17 0.0 8.0 0.00 0.00 0.00 32 1003.4
20260504220015 71 236 1.0 18.0 0.00 0.00 0.00 31 1003.4
20260504214603 72 292 0.0 10.0 0.00 0.00 0.00 31 1003.4
20260504213040 73 355 3.0 12.0 0.00 0.00 0.00 29 1003.3
20260504211513 73 153 1.0 14.0 0.00 0.00 0.00 30 1003.4
20260504210053 73 232 0.0 8.0 0.00 0.00 0.00 30 1003.3
20260504204525 72 254 1.0 9.0 0.00 0.00 0.00 30 1003.3
20260504203052 73 336 0.0 12.0 0.00 0.00 0.00 31 1003.1
20260504201543 72 336 2.0 12.0 0.00 0.00 0.00 32 1003.2
20260504200015 71 296 1.0 7.0 0.00 0.00 0.00 33 1003.3
20260504194604 70 11 1.0 9.0 0.00 0.00 0.00 32 1003.4
20260504193030 70 307 1.0 8.0 0.00 0.00 0.00 34 1003.6
20260504191510 69 302 1.0 12.0 0.00 0.00 0.00 34 1003.6
20260504190047 66 265 0.0 10.0 0.00 0.00 0.00 37 1003.7
20260504184538 66 349 2.0 11.0 0.00 0.00 0.00 35 1003.8
20260504183006 67 252 2.0 14.0 0.00 0.00 0.00 33 1003.7
20260504181547 67 301 1.0 5.0 0.00 0.00 0.00 34 1003.7
20260504180036 67 282 5.0 12.0 0.00 0.00 0.00 33 1003.9
20260504174511 67 331 5.0 15.0 0.00 0.00 0.00 32 1003.6
20260504173050 68 231 6.0 16.0 0.00 0.00 0.00 31 1003.7
20260504171530 69 255 5.0 17.0 0.00 0.00 0.00 31 1003.6
20260504081521 39 270 0.0 0.0 0.00 0.00 0.00 67 1007.3
20260504050104 38 248 0.0 0.0 0.00 0.00 0.00 69 1007.1
20260504044542 38 213 0.0 1.0 0.00 0.00 0.00 70 1007.0
20260504043021 38 231 0.0 1.0 0.00 0.00 0.00 69 1006.9
20260504041601 38 321 0.0 1.0 0.00 0.00 0.00 68 1006.8
20260504040036 38 269 0.0 4.0 0.00 0.00 0.00 68 1006.8
20260504034518 39 234 0.0 0.0 0.00 0.00 0.00 66 1006.7
20260504033057 39 234 0.0 0.0 0.00 0.00 0.00 65 1006.6
20260504031533 40 234 0.0 1.0 0.00 0.00 0.00 64 1006.6
20260504030020 39 261 0.0 1.0 0.00 0.01 0.00 65 1006.6
20260504024601 40 268 0.0 1.0 0.00 0.01 0.00 65 1006.6
20260504023035 41 328 0.0 0.0 0.00 0.01 0.00 63 1006.5
20260504021508 41 328 0.0 1.0 0.00 0.01 0.00 61 1006.5
20260504020047 42 312 0.0 1.0 0.00 0.01 0.00 60 1006.5
20260504014525 43 331 0.0 2.0 0.00 0.01 0.00 59 1006.5
20260504013001 44 267 0.0 1.0 0.00 0.01 0.00 55 1006.5
20260504011540 44 329 0.0 0.0 0.00 0.01 0.00 54 1006.3
20260504010029 45 320 0.0 3.0 0.00 0.04 0.00 53 1006.1
20260504004507 45 292 2.0 8.0 0.00 0.04 0.00 51 1005.8
20260504003046 46 235 0.0 5.0 0.00 0.04 0.00 51 1005.6